Weather in Tavrichanka

Russia / Primorsky Krai     43°19′29″N   131°51′36″E
temp.,
°C
wind,
m/s
gust,
m/s
humid.,
%
clouds,
%
prec.,
mm/h
press.,
hPa
HPBL,
m
27 september, mon
mon2701:00+17ssw249440 0.1 1020175
04:00+16ssw239540 0.1 1019153
07:00+16s2494100 0.1 1018174
10:00+18s4886100 0.3 1019679
13:00+19s6876100 0.1 1018825
16:00+19s6878100 0.1 1017837
19:00+17s5985100 0.0 1017512
22:00+17s368991 0.0 1018268
28 september, tue
tue2801:00+16s369195 0.0 1017295
04:00+17ssw3592100 0.1 1017253
07:00+16ssw249496 0.7 1017188
10:00+17ssw138991 0.8 1017205
13:00+20s446889 0.0 1015802
16:00+19s4670100 0.0 1014516
19:00+17ssw3484100 0.0 1014142
22:00+16s3589100 0.0 1014219
29 september, wed
wed2901:00+16s3594100 0.0 1013248
04:00+16s3695100 0.1 1012304
07:00+17s4894100 0.2 1011406
10:00+18s61092100 0.8 1010582
13:00+19s5689100 0.6 1009441
16:00+18sse4587100 0.6 1007519
19:00+17s229219 0.1 1007107
22:00+15w22930 0.1 100751
30 september, thu
thu3001:00+14wnw22901 0.0 100646
04:00+15nnw35893 0.0 1007158
07:00+14nnw612624 0.0 1010637
10:00+15n69470 0.0 1011933
13:00+18n57350 0.0 10111356
16:00+19ne45370 0.0 1010803
19:00+15e22555 0.0 101050
22:00+13wnw115879 0.0 101134
1 october, fri
fri101:00+13nw1156100 0.0 101143
04:00+11n226399 0.0 101168
07:00+10n3466100 0.0 1013133
10:00+14n465414 0.0 1013396
13:00+17nne334616 0.0 1012954
16:00+18ene22470 0.0 1011784
19:00+14sw11650 0.0 101256
22:00+12w11715 0.0 101336